This is the latest recevied weather packets stored in our database for station/object WI0K. If no packets are shown the sender has not sent any weather packets the latest 10 day(s).
| Time | Temp. | Humidity | Pressure | Rain* | Wind** | Luminosity | Snow |
|---|---|---|---|---|---|---|---|
| 1777934478 | 17.78° C | 31% | 1009.6 hPa | 0.76 mm | - | 178 W/m² | - |
| 1777934425 | 17.78° C | 31% | 1009.3 hPa | 0.76 mm | - | 158 W/m² | - |
| 1777934177 | 17.78° C | 31% | 1009.3 hPa | 0.76 mm | - | 158 W/m² | - |
| 1777933877 | 17.78° C | 31% | 1009.3 hPa | 0.76 mm | - | 141 W/m² | - |
| 1777933819 | 17.78° C | 31% | 1009.5 hPa | 0.76 mm | - | 155 W/m² | - |
| 1777933576 | 17.78° C | 31% | 1009.5 hPa | 0.76 mm | - | 155 W/m² | - |
| 1777933524 | 17.78° C | 30% | 1009.3 hPa | 0.76 mm | - | 161 W/m² | - |
| 1777933275 | 17.78° C | 30% | 1009.3 hPa | 0.76 mm | - | 161 W/m² | - |
| 1777933218 | 17.78° C | 30% | 1009.2 hPa | 0.76 mm | - | 193 W/m² | - |
| 1777932975 | 17.78° C | 30% | 1009.2 hPa | 0.76 mm | - | 193 W/m² | - |
| 1777932674 | 17.78° C | 30% | 1009 hPa | 0.76 mm | - | 193 W/m² | - |
| 1777932374 | 18.33° C | 30% | 1008.5 hPa | 0.51 mm | - | 223 W/m² | - |
| 1777932073 | 18.33° C | 29% | 1008.4 hPa | 0.51 mm | - | 233 W/m² | - |
| 1777931772 | 18.89° C | 29% | 1008.4 hPa | 0.51 mm | - | 335 W/m² | - |
| 1777931472 | 18.89° C | 28% | 1008.4 hPa | 0 mm | - | 504 W/m² | - |
| 1777931171 | 18.33° C | 28% | 1008.5 hPa | 0 mm | - | 302 W/m² | - |
| 1777930870 | 18.89° C | 29% | 1008.3 hPa | 0 mm | - | 281 W/m² | - |
| 1777930570 | 18.89° C | 28% | 1008.7 hPa | 0 mm | - | 222 W/m² | - |
| 1777930519 | 19.44° C | 24% | 1008.7 hPa | 0 mm | - | 196 W/m² | - |
| 1777930269 | 19.44° C | 24% | 1008.7 hPa | 0 mm | - | 196 W/m² | - |
| 1777929968 | 19.44° C | 24% | 1008.7 hPa | 0 mm | - | 246 W/m² | - |
| 1777929668 | 19.44° C | 24% | 1008.7 hPa | 0 mm | - | 246 W/m² | - |
| 1777929618 | 19.44° C | 25% | 1008.9 hPa | 0 mm | - | 267 W/m² | - |
| 1777929367 | 19.44° C | 25% | 1008.9 hPa | 0 mm | - | 267 W/m² | - |
| 1777929318 | 20° C | 24% | 1008.9 hPa | 0 mm | - | 271 W/m² | - |
* Rain latest hour (hover to see other rain measurements)
** Current wind speed in m/s (hover to see current wind gust speed)